Weather in San Ramon

United States     37°44′34″N   121°56′18″W
temp.,
°C
wind,
m/s
gust,
m/s
humid.,
%
clouds,
%
prec.,
mm/h
press.,
hPa
HPBL,
m
7 may, fri
fri723:00+8sw349417 0.0 101996
02:00+9sw359059 0.0 1018293
05:00+9sw358761 0.0 1018309
08:00+11ssw22733 0.0 1018466
11:00+18wsw22450 0.0 1017846
14:00+21w44360 0.0 10171157
17:00+18sw44400 0.0 1016642
20:00+11sw22654 0.0 101650
8 may, sat
sat823:00+9ssw11760 0.0 101721
02:00+8wnw11790 0.0 101611
05:00+9nnw11660 0.0 101711
08:00+16n26300 0.0 1017376
11:00+24n47115 0.0 10161233
14:00+29nw471035 0.0 10141962
17:00+25wsw36210 0.0 10131167
20:00+15sw22470 0.0 101432
9 may, sun
sun923:00+11sw21680 0.0 101426
02:00+9wsw11795 0.0 101319
05:00+8sw11855 0.0 101416
08:00+13wsw116022 0.0 1014191
11:00+23wnw252550 0.0 10121171
14:00+25wsw5524100 0.0 10101296
17:00+21wsw34365 0.0 1010597
20:00+13sw22605 0.0 101034
10 may, mon
mon1023:00+10sw11770 0.0 101020
02:00+10sw11810 0.0 101012
05:00+9nnw01760 0.0 101010
08:00+17nne12400 0.0 1011176
11:00+25n36170 0.0 10111446
14:00+29nnw4780 0.0 10102178
17:00+27w47140 0.0 10091236
20:00+16wsw22410 0.0 101023
11 may, tue
tue1123:00+12sw11560 0.0 101116
02:00+11sw00610 0.0 101112
05:00+11ne00553 0.0 101210
08:00+18ne11313 0.0 1013144
11:00+27n24140 0.0 10131161
14:00+31wnw24115 0.0 10112017
17:00+25w46200 0.0 1012598
20:00+17sw22420 0.0 101329